Location: Gymnasium_Grossenhain
(51.3000°N, 13.5950°E)
Time: 07:15:44
(UTC+02:00)

BlueWalker 3 - Visible Passes

Search period start: 04 October 2024 00:00
Search period end: 14 October 2024 00:00
Orbit: 473 x 486 km, 53.2° (Epoch: 03 October)

Date Brightness Start Highest point End Pass type
(mag) Time Alt. Az. Time Alt. Az. Time Alt. Az.
04 Oct 4.4 05:54:55 10° S 05:57:26 18° SE 05:59:57 10° E visible
05 Oct 4.4 05:27:03 10° S 05:29:23 16° SE 05:31:43 10° E visible
06 Oct 4.3 04:59:47 12° SSE 05:01:18 15° SE 05:03:24 10° E visible
06 Oct 2.3 06:35:03 10° SW 06:38:41 58° SSE 06:42:20 10° ENE visible
07 Oct 4.5 04:33:06 13° SE 04:33:10 13° SE 04:34:59 10° ESE visible
07 Oct 2.4 06:07:18 13° SW 06:10:31 54° SSE 06:14:08 10° ENE visible
08 Oct 4.9 04:06:16 10° ESE 04:06:16 10° ESE 04:06:28 10° ESE visible
08 Oct 2.4 05:40:29 25° SW 05:42:18 50° SSE 05:45:55 10° ENE visible
09 Oct 2.4 05:13:33 42° S 05:14:04 46° SSE 05:17:38 10° ENE visible
10 Oct 3.1 04:46:31 37° ESE 04:46:31 37° ESE 04:49:19 10° ENE visible
10 Oct 1.9 06:20:42 15° W 06:23:41 73° N 06:27:23 10° ENE visible
11 Oct 4.2 04:19:24 22° E 04:19:24 22° E 04:20:57 10° ENE visible
11 Oct 1.8 05:53:35 29° W 05:55:20 75° NNW 05:59:02 10° ENE visible
12 Oct 5.0 03:52:13 12° E 03:52:13 12° E 03:52:34 10° E visible
12 Oct 1.7 05:26:24 61° W 05:26:57 78° NNW 05:30:40 10° ENE visible
13 Oct 2.3 04:59:10 59° ENE 04:59:10 59° ENE 05:02:15 10° ENE visible
13 Oct 2.0 06:33:21 12° WNW 06:36:42 64° N 06:40:23 10° E visible
